KUIPER-00198

Last updated on Sun Mar 15 2026 00:02:06 GMT+0000 (Coordinated Universal Time)

1 67770U 26030G 26073.63658809 .00062264 00000+0 17269-2 0 9997 2 67770 51.8807 195.2280 0003937 50.3575 309.7759 15.36331957 5853
UTC large
Height (km)
Speed (km/s)
/
Latitude / Longitude
Inclination (degrees)
Orbital Period (minutes)
Azimuth
Elevation
Range (km)
Doppler Factor

Next 0 passes for location: London (51.5072 / 0.1276)

Sorry there are no passes over London.